Total_Precipitation_Accumulation
1.26 1.34 1.34 1.15 0.90 0.81 0.81 0.80 0.80 0.83 0.88 0.93 0.86 0.85 0.91 0.95 0.90 1.00 1.11 1.20 1.31 1.41 1.42 1.47 1.53 1.53 1.67 1.71 1.82 1.92 1.96 1.94 1.73 1.50 1.36 1.37 1.38 1.36 1.32 1.22 1.23 1.26 1.17
1.15 1.13 0.96 0.77 0.66 0.63 0.60 0.57 0.56 0.58 0.59 0.64 0.63 0.60 0.66 0.79 0.82 0.91 0.96 0.96 1.06 1.19 1.27 1.32 1.31 1.32 1.43 1.51 1.58 1.66 1.81 1.87 1.78 1.60 1.43 1.34 1.23 1.26 1.40 1.43 1.37 1.29 1.28
0.76 0.79 0.74 0.63 0.58 0.54 0.50 0.49 0.47 0.50 0.51 0.52 0.52 0.54 0.56 0.64 0.78 0.84 0.86 0.85 0.87 0.90 0.97 1.00 1.04 1.14 1.30 1.35 1.36 1.47 1.62 1.69 1.80 1.67 1.53 1.42 1.25 1.21 1.38 1.38 1.41 1.57 1.47
0.53 0.57 0.57 0.55 0.53 0.53 0.53 0.52 0.48 0.47 0.48 0.47 0.45 0.46 0.54 0.64 0.71 0.79 0.80 0.77 0.76 0.81 0.85 0.84 0.83 0.89 1.03 1.17 1.25 1.41 1.58 1.72 1.79 1.71 1.64 1.58 1.47 1.35 1.44 1.53 1.57 1.65 1.67
0.41 0.43 0.50 0.53 0.54 0.51 0.52 0.50 0.48 0.46 0.43 0.40 0.39 0.42 0.48 0.54 0.59 0.73 0.75 0.76 0.79 0.76 0.78 0.81 0.81 0.82 0.84 0.90 0.90 1.09 1.30 1.55 1.66 1.72 1.70 1.70 1.62 1.54 1.46 1.60 1.65 1.76 1.84
0.32 0.32 0.40 0.48 0.50 0.52 0.50 0.47 0.43 0.44 0.43 0.40 0.38 0.40 0.40 0.38 0.57 0.66 0.69 0.75 0.82 0.86 0.83 0.82 0.79 0.76 0.86 0.85 0.82 0.85 0.98 1.14 1.32 1.43 1.49 1.52 1.57 1.64 1.74 1.75 1.71 1.76 1.80
0.30 0.33 0.38 0.40 0.39 0.44 0.46 0.41 0.36 0.39 0.41 0.40 0.40 0.41 0.41 0.38 0.42 0.44 0.57 0.70 0.84 0.88 0.83 0.92 0.94 0.84 0.86 0.90 0.94 0.86 0.79 0.82 0.98 1.19 1.31 1.33 1.41 1.49 1.71 1.75 1.75 1.75 1.65
0.31 0.32 0.36 0.37 0.37 0.35 0.38 0.36 0.34 0.36 0.38 0.39 0.44 0.44 0.40 0.35 0.36 0.35 0.44 0.57 0.72 0.76 0.75 0.85 1.08 1.09 0.97 0.95 1.01 1.07 0.95 0.80 0.80 0.86 1.04 1.19 1.24 1.40 1.74 1.95 1.89 1.65 1.57
0.33 0.31 0.32 0.34 0.36 0.36 0.31 0.31 0.33 0.37 0.38 0.35 0.37 0.40 0.39 0.37 0.37 0.36 0.39 0.48 0.59 0.62 0.65 0.77 0.91 1.04 1.00 0.98 0.96 1.02 1.03 0.91 0.87 0.90 0.87 0.95 1.09 1.27 1.55 1.84 1.94 1.84 1.63
0.33 0.33 0.33 0.32 0.30 0.33 0.32 0.32 0.33 0.37 0.41 0.41 0.39 0.36 0.34 0.34 0.37 0.38 0.40 0.41 0.45 0.46 0.52 0.69 0.89 0.86 0.85 0.91 0.96 1.05 1.14 0.97 0.88 0.97 0.93 0.96 0.99 1.19 1.54 1.75 1.89 1.87 1.70
0.37 0.41 0.40 0.36 0.34 0.39 0.41 0.39 0.38 0.38 0.41 0.40 0.40 0.38 0.36 0.34 0.38 0.39 0.40 0.38 0.41 0.44 0.50 0.62 0.67 0.66 0.67 0.77 0.87 0.94 1.08 0.97 0.98 1.12 1.15 1.09 1.15 1.18 1.30 1.45 1.68 1.84 1.74
0.40 0.42 0.42 0.42 0.42 0.45 0.49 0.49 0.49 0.47 0.46 0.46 0.47 0.46 0.44 0.40 0.38 0.38 0.42 0.42 0.46 0.46 0.52 0.58 0.57 0.56 0.59 0.65 0.67 0.73 0.89 1.00 1.07 1.21 1.26 1.22 1.16 1.18 1.22 1.26 1.37 1.51 1.52
0.43 0.43 0.44 0.46 0.47 0.46 0.47 0.51 0.53 0.51 0.48 0.47 0.48 0.49 0.51 0.47 0.43 0.42 0.43 0.45 0.48 0.48 0.51 0.58 0.61 0.63 0.64 0.62 0.63 0.69 0.82 0.98 1.16 1.20 1.11 1.05 1.09 1.13 1.14 1.26 1.34 1.38 1.41
0.49 0.49 0.47 0.46 0.46 0.46 0.46 0.46 0.46 0.47 0.46 0.46 0.48 0.48 0.47 0.45 0.39 0.37 0.40 0.44 0.49 0.51 0.55 0.60 0.63 0.65 0.63 0.59 0.66 0.76 0.89 1.08 1.16 1.10 1.05 0.91 0.92 1.07 1.14 1.16 1.20 1.20 1.24
0.53 0.53 0.50 0.46 0.43 0.43 0.43 0.44 0.45 0.44 0.47 0.51 0.51 0.53 0.49 0.44 0.45 0.49 0.47 0.43 0.44 0.48 0.55 0.61 0.66 0.72 0.73 0.78 0.86 0.93 0.93 0.97 1.03 0.94 0.99 0.93 0.87 0.94 0.99 0.99 1.03 1.00 0.97
0.50 0.51 0.48 0.50 0.47 0.43 0.42 0.45 0.51 0.52 0.55 0.50 0.50 0.51 0.47 0.44 0.49 0.46 0.47 0.49 0.49 0.54 0.61 0.64 0.72 0.81 0.85 0.90 0.95 0.94 0.92 0.93 0.95 0.93 0.93 0.92 0.85 0.85 0.87 0.89 0.92 0.97 0.99
0.46 0.44 0.43 0.46 0.47 0.46 0.46 0.46 0.49 0.48 0.47 0.43 0.42 0.43 0.43 0.43 0.42 0.42 0.45 0.47 0.50 0.55 0.58 0.67 0.86 0.89 0.85 0.88 0.93 0.92 0.82 0.76 0.78 0.80 0.80 0.79 0.77 0.77 0.81 0.82 0.84 0.89 0.92
0.53 0.57 0.51 0.47 0.47 0.49 0.49 0.47 0.46 0.47 0.49 0.45 0.40 0.39 0.39 0.40 0.40 0.40 0.44 0.45 0.44 0.46 0.48 0.58 0.73 0.76 0.78 0.82 0.81 0.78 0.73 0.66 0.66 0.66 0.64 0.65 0.67 0.72 0.76 0.79 0.78 0.77 0.82
0.48 0.53 0.54 0.53 0.51 0.49 0.48 0.45 0.43 0.42 0.44 0.47 0.44 0.43 0.44 0.45 0.45 0.46 0.47 0.42 0.40 0.42 0.46 0.54 0.61 0.67 0.69 0.68 0.68 0.67 0.67 0.68 0.65 0.64 0.64 0.66 0.67 0.70 0.70 0.69 0.73 0.77 0.76
0.43 0.51 0.53 0.51 0.50 0.51 0.49 0.47 0.48 0.45 0.45 0.47 0.43 0.45 0.47 0.45 0.43 0.43 0.44 0.44 0.44 0.45 0.45 0.46 0.52 0.57 0.60 0.61 0.63 0.65 0.66 0.69 0.68 0.65 0.64 0.66 0.71 0.74 0.72 0.71 0.71 0.72 0.72
0.41 0.44 0.50 0.48 0.47 0.49 0.53 0.52 0.53 0.52 0.50 0.50 0.51 0.54 0.55 0.50 0.48 0.48 0.49 0.49 0.48 0.47 0.46 0.45 0.46 0.51 0.57 0.63 0.69 0.71 0.69 0.72 0.74 0.71 0.70 0.72 0.75 0.77 0.76 0.76 0.76 0.75 0.75
0.45 0.43 0.43 0.44 0.46 0.46 0.49 0.50 0.50 0.49 0.49 0.52 0.54 0.58 0.58 0.52 0.52 0.53 0.53 0.51 0.47 0.47 0.49 0.49 0.49 0.52 0.57 0.62 0.69 0.74 0.75 0.78 0.84 0.87 0.86 0.85 0.87 0.86 0.84 0.83 0.82 0.84 0.83
0.46 0.46 0.46 0.44 0.43 0.47 0.47 0.46 0.48 0.50 0.51 0.53 0.54 0.54 0.52 0.52 0.52 0.51 0.53 0.53 0.51 0.51 0.53 0.54 0.54 0.55 0.58 0.63 0.69 0.75 0.78 0.78 0.87 0.98 1.02 0.99 0.96 0.95 0.93 0.91 0.89 0.91 0.92
0.42 0.45 0.44 0.43 0.43 0.44 0.43 0.43 0.46 0.47 0.47 0.49 0.51 0.51 0.52 0.53 0.53 0.54 0.55 0.55 0.55 0.54 0.55 0.59 0.60 0.58 0.59 0.63 0.68 0.74 0.80 0.86 0.92 0.99 1.06 1.09 1.02 0.96 0.95 0.94 0.91 0.91 0.96
0.37 0.41 0.42 0.43 0.45 0.46 0.46 0.47 0.47 0.47 0.45 0.46 0.47 0.48 0.49 0.51 0.53 0.56 0.58 0.60 0.60 0.58 0.59 0.61 0.63 0.64 0.64 0.65 0.67 0.71 0.84 0.92 0.93 0.95 0.99 1.07 1.04 0.98 0.95 0.95 0.94 0.95 0.97
0.38 0.38 0.41 0.43 0.45 0.46 0.47 0.47 0.48 0.49 0.49 0.48 0.50 0.53 0.54 0.55 0.55 0.55 0.58 0.59 0.61 0.58 0.56 0.56 0.56 0.58 0.60 0.62 0.64 0.72 0.81 0.80 0.85 0.94 0.98 1.04 1.11 1.08 1.04 1.04 1.01 1.03 1.02